Keps
Threads by month
- ----- 2024 -----
- December
- November
- October
- September
- August
- July
- June
- May
- April
- March
- February
- January
- ----- 2023 -----
- December
- November
- October
- September
- August
- July
- June
- May
- April
- March
- February
- January
- ----- 2022 -----
- December
- November
- October
- September
- August
- July
- June
- May
- April
- March
- February
- January
- ----- 2021 -----
- December
- November
- October
- September
- August
- July
- June
- May
- April
- March
- February
- January
- ----- 2020 -----
- December
- November
- October
- September
- August
- July
- June
- May
- April
- March
- February
- January
- ----- 2019 -----
- December
- November
- October
- September
- August
- July
- June
- May
- April
- March
- February
- January
- ----- 2018 -----
- December
- November
- October
- September
- August
- July
- June
- May
- April
- March
- February
- January
- ----- 2017 -----
- December
- November
- October
- September
- August
- July
- June
- May
- April
- March
- February
- January
- ----- 2016 -----
- December
- November
- October
- September
- August
- July
- June
- May
- April
- March
- February
- January
- ----- 2015 -----
- December
- November
- October
- September
- August
- July
- June
- May
- April
- March
- February
- January
- ----- 2014 -----
- December
- November
- October
- September
- August
- July
- June
- May
- April
- March
- February
- January
- ----- 2013 -----
- December
- November
- October
- September
- August
- July
- June
- May
- April
- March
- February
- January
- ----- 2012 -----
- December
- November
- October
- September
- August
- July
- June
- May
- April
- March
- February
- January
- ----- 2011 -----
- December
- November
- October
- September
- August
- July
- June
- May
- April
- March
- February
- January
- ----- 2010 -----
- December
- November
- October
- September
- August
- July
- June
- May
- April
- March
- February
- January
- ----- 2009 -----
- December
- November
- October
- September
- August
- July
- June
- May
- April
- March
- February
- January
- ----- 2008 -----
- December
- November
- October
- September
- August
- July
- June
- May
- April
- March
- February
- January
- ----- 2007 -----
- December
- November
- October
- September
- August
- July
- June
- May
- April
- March
- February
- January
- ----- 2006 -----
- December
- November
- October
- September
May 2013
- 1 participants
- 11 discussions
SB KEPS @ AMSAT $ORB13122.O
Orbital Elements 13122.OSCAR
HR AMSAT ORBITAL ELEMENTS FOR OSCAR SATELLITES
FROM WA5QGD FORT WORTH,TX May 2, 2013
BID: ORB13122.O
TO ALL RADIO AMATEURS BT
Satellite: AO-07
Catalog number: 07530
Epoch time: 13122.05403392
Element set: 670
Inclination: 101.4280 deg
RA of node: 113.2394 deg
Eccentricity: 0.0012073
Arg of perigee: 020.8560 deg
Mean anomaly: 009.2172 deg
Mean motion: 12.53595939 rev/day
Decay rate: -2.5e-07 rev/day^2
Epoch rev: 76000
Checksum: 247
Satellite: FO-29
Catalog number: 24278
Epoch time: 13122.14005868
Element set: 106
Inclination: 098.5592 deg
RA of node: 186.8543 deg
Eccentricity: 0.0349465
Arg of perigee: 283.4766 deg
Mean anomaly: 126.5691 deg
Mean motion: 13.52999058 rev/day
Decay rate: -3.0e-08 rev/day^2
Epoch rev: 82508
Checksum: 342
Satellite: SO-33
Catalog number: 25509
Epoch time: 13121.80559411
Element set: 486
Inclination: 031.4324 deg
RA of node: 330.2253 deg
Eccentricity: 0.0351271
Arg of perigee: 111.9059 deg
Mean anomaly: 351.3425 deg
Mean motion: 14.29029421 rev/day
Decay rate: 1.123e-05 rev/day^2
Epoch rev: 75825
Checksum: 266
Satellite: RS-22
Catalog number: 27939
Epoch time: 13122.13022213
Element set: 372
Inclination: 097.7990 deg
RA of node: 312.3856 deg
Eccentricity: 0.0013168
Arg of perigee: 339.1215 deg
Mean anomaly: 020.9445 deg
Mean motion: 14.64408161 rev/day
Decay rate: 6.74e-06 rev/day^2
Epoch rev: 51255
Checksum: 285
Satellite: VO-52
Catalog number: 28650
Epoch time: 13120.10411470
Element set: 409
Inclination: 097.5702 deg
RA of node: 141.1729 deg
Eccentricity: 0.0027494
Arg of perigee: 080.8810 deg
Mean anomaly: 311.8697 deg
Mean motion: 14.83750000 rev/day
Decay rate: 2.021e-05 rev/day^2
Epoch rev: 43195
Checksum: 271
Satellite: HO-68
Catalog number: 36122
Epoch time: 13122.21771624
Element set: 510
Inclination: 100.3102 deg
RA of node: 180.4239 deg
Eccentricity: 0.0007866
Arg of perigee: 099.3044 deg
Mean anomaly: 260.8959 deg
Mean motion: 13.16303533 rev/day
Decay rate: -4.4e-07 rev/day^2
Epoch rev: 16236
Checksum: 268
/EX
SB KEPS @ AMSAT $ORB13122.D
Orbital Elements 13122.MICROS
HR AMSAT ORBITAL ELEMENTS FOR THE MICROSATS
FROM WA5QGD FORT WORTH,TX May 2, 2013
BID: ORB13122.D
TO ALL RADIO AMATEURS BT
Satellite: UO-11
Catalog number: 14781
Epoch time: 13122.16113590
Element set: 167
Inclination: 097.9069 deg
RA of node: 184.1225 deg
Eccentricity: 0.0010161
Arg of perigee: 082.7529 deg
Mean anomaly: 277.4838 deg
Mean motion: 14.80844366 rev/day
Decay rate: 1.051e-05 rev/day^2
Epoch rev: 56712
Checksum: 297
Satellite: AO-16
Catalog number: 20439
Epoch time: 13121.49259354
Element set: 735
Inclination: 098.4684 deg
RA of node: 062.6104 deg
Eccentricity: 0.0009766
Arg of perigee: 299.2911 deg
Mean anomaly: 166.6850 deg
Mean motion: 14.32163383 rev/day
Decay rate: 2.22e-06 rev/day^2
Epoch rev: 21555
Checksum: 308
Satellite: LO-19
Catalog number: 20442
Epoch time: 13121.87297259
Element set: 669
Inclination: 098.4374 deg
RA of node: 064.9162 deg
Eccentricity: 0.0010656
Arg of perigee: 287.2106 deg
Mean anomaly: 105.8594 deg
Mean motion: 14.32375850 rev/day
Decay rate: 1.94e-06 rev/day^2
Epoch rev: 21580
Checksum: 317
Satellite: AO-27
Catalog number: 22825
Epoch time: 13121.39721662
Element set: 372
Inclination: 098.6150 deg
RA of node: 065.9247 deg
Eccentricity: 0.0009412
Arg of perigee: 070.2184 deg
Mean anomaly: 076.1096 deg
Mean motion: 14.29554152 rev/day
Decay rate: 1.90e-06 rev/day^2
Epoch rev: 2194
Checksum: 287
Satellite: IO-26
Catalog number: 22826
Epoch time: 13119.84484564
Element set: 128
Inclination: 098.6088 deg
RA of node: 064.6864 deg
Eccentricity: 0.0009939
Arg of perigee: 068.0977 deg
Mean anomaly: 325.8930 deg
Mean motion: 14.29836371 rev/day
Decay rate: 1.72e-06 rev/day^2
Epoch rev: 2185
Checksum: 347
Satellite: GO-32
Catalog number: 25397
Epoch time: 13119.96052840
Element set: 58
Inclination: 098.4099 deg
RA of node: 089.8285 deg
Eccentricity: 0.0002442
Arg of perigee: 090.6736 deg
Mean anomaly: 301.9414 deg
Mean motion: 14.23334846 rev/day
Decay rate: 1.08e-06 rev/day^2
Epoch rev: 76908
Checksum: 324
Satellite: NO-44
Catalog number: 26931
Epoch time: 13121.26238300
Element set: 317
Inclination: 067.0540 deg
RA of node: 020.4739 deg
Eccentricity: 0.0006967
Arg of perigee: 285.7508 deg
Mean anomaly: 220.7055 deg
Mean motion: 14.29913253 rev/day
Decay rate: 2.19e-06 rev/day^2
Epoch rev: 60471
Checksum: 282
Satellite: SO-50
Catalog number: 27607
Epoch time: 13122.16684323
Element set: 54
Inclination: 064.5586 deg
RA of node: 044.2315 deg
Eccentricity: 0.0050887
Arg of perigee: 178.1272 deg
Mean anomaly: 328.6152 deg
Mean motion: 14.72878693 rev/day
Decay rate: 1.037e-05 rev/day^2
Epoch rev: 55693
Checksum: 317
Satellite: CO-55
Catalog number: 27844
Epoch time: 13119.63530264
Element set: 636
Inclination: 098.7014 deg
RA of node: 129.4141 deg
Eccentricity: 0.0010124
Arg of perigee: 036.6186 deg
Mean anomaly: 077.8911 deg
Mean motion: 14.21196572 rev/day
Decay rate: 2.62e-06 rev/day^2
Epoch rev: 50983
Checksum: 299
Satellite: CO-57
Catalog number: 27848
Epoch time: 13122.00876507
Element set: 583
Inclination: 098.7096 deg
RA of node: 131.2413 deg
Eccentricity: 0.0009989
Arg of perigee: 035.8494 deg
Mean anomaly: 018.4622 deg
Mean motion: 14.20926878 rev/day
Decay rate: 3.56e-06 rev/day^2
Epoch rev: 51010
Checksum: 322
Satellite: AO-51
Catalog number: 28375
Epoch time: 13121.93410100
Element set: 546
Inclination: 098.1972 deg
RA of node: 079.2616 deg
Eccentricity: 0.0084278
Arg of perigee: 155.3547 deg
Mean anomaly: 237.5805 deg
Mean motion: 14.41101456 rev/day
Decay rate: 3.11e-06 rev/day^2
Epoch rev: 46467
Checksum: 297
Satellite: CP3
Catalog number: 31129
Epoch time: 13122.15205398
Element set: 450
Inclination: 097.8957 deg
RA of node: 117.3984 deg
Eccentricity: 0.0099862
Arg of perigee: 209.8881 deg
Mean anomaly: 286.3679 deg
Mean motion: 14.53592148 rev/day
Decay rate: 1.103e-05 rev/day^2
Epoch rev: 32030
Checksum: 322
Satellite: CO-65
Catalog number: 32785
Epoch time: 13120.15525174
Element set: 618
Inclination: 097.7559 deg
RA of node: 179.0520 deg
Eccentricity: 0.0015938
Arg of perigee: 105.5288 deg
Mean anomaly: 288.4896 deg
Mean motion: 14.83757633 rev/day
Decay rate: 1.754e-05 rev/day^2
Epoch rev: 27075
Checksum: 348
Satellite: PRISM
Catalog number: 33493
Epoch time: 13122.35603223
Element set: 765
Inclination: 098.2125 deg
RA of node: 277.7976 deg
Eccentricity: 0.0017726
Arg of perigee: 345.7487 deg
Mean anomaly: 014.3237 deg
Mean motion: 14.85719270 rev/day
Decay rate: 3.158e-05 rev/day^2
Epoch rev: 23111
Checksum: 303
Satellite: SOHLA-1
Catalog number: 33496
Epoch time: 13121.37262845
Element set: 34
Inclination: 098.1292 deg
RA of node: 237.5294 deg
Eccentricity: 0.0007933
Arg of perigee: 110.6101 deg
Mean anomaly: 281.7535 deg
Mean motion: 14.70253325 rev/day
Decay rate: 7.75e-06 rev/day^2
Epoch rev: 22899
Checksum: 295
Satellite: SO-67
Catalog number: 35870
Epoch time: 13122.30438575
Element set: 20
Inclination: 097.1948 deg
RA of node: 152.6959 deg
Eccentricity: 0.0003531
Arg of perigee: 104.2984 deg
Mean anomaly: 024.4291 deg
Mean motion: 15.26630621 rev/day
Decay rate: 5.587e-05 rev/day^2
Epoch rev: 20125
Checksum: 295
Satellite: TISAT-1
Catalog number: 36799
Epoch time: 13122.78479799
Element set: 37
Inclination: 098.0348 deg
RA of node: 207.2081 deg
Eccentricity: 0.0013806
Arg of perigee: 211.2981 deg
Mean anomaly: 148.7442 deg
Mean motion: 14.83127161 rev/day
Decay rate: 2.223e-05 rev/day^2
Epoch rev: 15184
Checksum: 309
